When you browse on this site, cookies collect data to enhance your experience and personalize the content and advertising you see.
Visit our Privacy Policy to learn more. By continuing to use the site, you agree to this use of cookies and data.

Stündliche Wetter Tula de Allende

Heute, 8 August, Samstag

Zeit Temperatur Niederschläge Wind Luftdruck Luftfeuchtigkeit
00:00 +15°C° 0 mm 1 m/S 595 mmHg 97%
01:00 +15°C° 0 mm 1 m/S 595 mmHg 96%
02:00 +15°C° 0 mm 1 m/S 595 mmHg 96%
03:00 +15°C° 0 mm 1 m/S 595 mmHg 96%
04:00 +15°C° 0 mm 1 m/S 595 mmHg 96%
05:00 +15°C° 0 mm 1 m/S 595 mmHg 96%
06:00 +16°C° 0.1 mm 2 m/S 596 mmHg 92%
07:00 +17°C° 0.1 mm 2 m/S 596 mmHg 88%
08:00 +18°C° 0.1 mm 2 m/S 596 mmHg 84%
09:00 +19°C° 0.2 mm 3 m/S 597 mmHg 79%
10:00 +20°C° 0.2 mm 3 m/S 597 mmHg 73%
11:00 +21°C° 0.2 mm 4 m/S 597 mmHg 68%
12:00 +21°C° 0.7 mm 4 m/S 597 mmHg 70%
13:00 +21°C° 0.7 mm 4 m/S 596 mmHg 71%
14:00 +21°C° 0.7 mm 4 m/S 596 mmHg 72%
15:00 +21°C° 0.8 mm 4 m/S 596 mmHg 75%
16:00 +20°C° 0.8 mm 4 m/S 595 mmHg 78%
17:00 +19°C° 0.8 mm 4 m/S 595 mmHg 81%
18:00 +18°C° 0.2 mm 4 m/S 596 mmHg 85%
19:00 +17°C° 0.2 mm 3 m/S 596 mmHg 88%
20:00 +16°C° 0.2 mm 3 m/S 596 mmHg 92%
21:00 +16°C° 0.1 mm 2 m/S 596 mmHg 93%
22:00 +16°C° 0.1 mm 2 m/S 596 mmHg 93%
23:00 +16°C° 0.1 mm 2 m/S 597 mmHg 93%

Morgen, 9 August, Sonntag

Zeit Temperatur Niederschläge Wind Luftdruck Luftfeuchtigkeit
00:00 +15°C° 0.1 mm 2 m/S 596 mmHg 94%
01:00 +15°C° 0.1 mm 2 m/S 596 mmHg 95%
02:00 +15°C° 0.1 mm 1 m/S 595 mmHg 96%
03:00 +15°C° 0.1 mm 1 m/S 595 mmHg 95%
04:00 +15°C° 0.1 mm 1 m/S 595 mmHg 95%
05:00 +14°C° 0.1 mm 1 m/S 595 mmHg 95%
06:00 +15°C° 0 mm 1 m/S 596 mmHg 92%
07:00 +15°C° 0 mm 1 m/S 596 mmHg 90%
08:00 +15°C° 0 mm 2 m/S 597 mmHg 87%
09:00 +16°C° 0 mm 2 m/S 597 mmHg 83%
10:00 +17°C° 0 mm 2 m/S 597 mmHg 80%
11:00 +18°C° 0 mm 2 m/S 597 mmHg 76%
12:00 +19°C° 0.1 mm 2 m/S 597 mmHg 73%
13:00 +20°C° 0.1 mm 3 m/S 597 mmHg 69%
14:00 +22°C° 0.1 mm 3 m/S 597 mmHg 66%
15:00 +21°C° 0.5 mm 3 m/S 597 mmHg 71%
16:00 +20°C° 0.5 mm 3 m/S 596 mmHg 75%
17:00 +19°C° 0.5 mm 3 m/S 596 mmHg 80%
18:00 +18°C° 0.5 mm 3 m/S 596 mmHg 84%
19:00 +17°C° 0.5 mm 2 m/S 596 mmHg 88%
20:00 +17°C° 0.5 mm 2 m/S 596 mmHg 92%
21:00 +16°C° 1.9 mm 1 m/S 596 mmHg 94%
22:00 +16°C° 1.9 mm 1 m/S 596 mmHg 95%
23:00 +16°C° 1.9 mm 1 m/S 596 mmHg 96%

übermorgen, 10 August, Montag

Zeit Temperatur Niederschläge Wind Luftdruck Luftfeuchtigkeit
00:00 +16°C° 0.9 mm 1 m/S 596 mmHg 96%
01:00 +16°C° 0.9 mm 1 m/S 596 mmHg 96%
02:00 +16°C° 0.9 mm 1 m/S 595 mmHg 97%
03:00 +16°C° 0.1 mm 1 m/S 595 mmHg 97%
04:00 +15°C° 0.1 mm 1 m/S 595 mmHg 96%
05:00 +15°C° 0.1 mm 1 m/S 595 mmHg 96%
06:00 +16°C° 0.1 mm 1 m/S 596 mmHg 95%
07:00 +16°C° 0.1 mm 1 m/S 596 mmHg 93%
08:00 +16°C° 0.1 mm 1 m/S 597 mmHg 91%
09:00 +17°C° 0.1 mm 2 m/S 597 mmHg 86%
10:00 +19°C° 0.1 mm 2 m/S 597 mmHg 81%
11:00 +20°C° 0.1 mm 2 m/S 597 mmHg 76%
12:00 +20°C° 0.4 mm 3 m/S 597 mmHg 73%
13:00 +21°C° 0.4 mm 4 m/S 597 mmHg 70%
14:00 +22°C° 0.4 mm 5 m/S 596 mmHg 67%
15:00 +21°C° 0.3 mm 4 m/S 596 mmHg 70%
16:00 +20°C° 0.3 mm 4 m/S 595 mmHg 74%
17:00 +20°C° 0.3 mm 3 m/S 595 mmHg 77%
18:00 +19°C° 0.3 mm 3 m/S 595 mmHg 81%
19:00 +18°C° 0.3 mm 2 m/S 595 mmHg 86%
20:00 +17°C° 0.3 mm 2 m/S 595 mmHg 90%
21:00 +16°C° 0.5 mm 1 m/S 595 mmHg 92%
22:00 +16°C° 0.5 mm 1 m/S 595 mmHg 93%
23:00 +16°C° 0.5 mm 1 m/S 596 mmHg 95%

11 August, Dienstag

Zeit Temperatur Niederschläge Wind Luftdruck Luftfeuchtigkeit
00:00 +16°C° 1.1 mm 1 m/S 595 mmHg 95%
01:00 +16°C° 1.1 mm 1 m/S 595 mmHg 95%
02:00 +15°C° 1.1 mm 0 m/S 594 mmHg 95%
03:00 +15°C° 0.2 mm 1 m/S 594 mmHg 96%
04:00 +15°C° 0.2 mm 1 m/S 594 mmHg 96%
05:00 +15°C° 0.2 mm 1 m/S 594 mmHg 97%
06:00 +16°C° 0 mm 1 m/S 595 mmHg 93%
07:00 +16°C° 0 mm 1 m/S 595 mmHg 90%
08:00 +18°C° 0 mm 1 m/S 596 mmHg 86%
09:00 +20°C° 0.2 mm 1 m/S 596 mmHg 80%
10:00 +20°C° 0.2 mm 2 m/S 597 mmHg 73%
11:00 +23°C° 0.2 mm 2 m/S 597 mmHg 66%
12:00 +22°C° 1.3 mm 3 m/S 596 mmHg 68%
13:00 +22°C° 1.3 mm 3 m/S 596 mmHg 70%
14:00 +22°C° 1.3 mm 4 m/S 595 mmHg 72%
15:00 +21°C° 1.5 mm 4 m/S 595 mmHg 77%
16:00 +19°C° 1.5 mm 4 m/S 594 mmHg 83%
17:00 +18°C° 1.5 mm 4 m/S 593 mmHg 89%
18:00 +17°C° 2.7 mm 3 m/S 594 mmHg 91%
19:00 +17°C° 2.7 mm 2 m/S 594 mmHg 93%
20:00 +16°C° 2.7 mm 2 m/S 595 mmHg 95%
21:00 +16°C° 2.6 mm 2 m/S 595 mmHg 96%
22:00 +16°C° 2.6 mm 1 m/S 595 mmHg 96%
23:00 +16°C° 2.6 mm 1 m/S 595 mmHg 96%

12 August, Mittwoch

Zeit Temperatur Niederschläge Wind Luftdruck Luftfeuchtigkeit
00:00 +16°C° 0.4 mm 1 m/S 594 mmHg 96%
01:00 +15°C° 0.4 mm 1 m/S 594 mmHg 96%
02:00 +14°C° 0.4 mm 0 m/S 594 mmHg 95%
03:00 +14°C° 0.2 mm 0 m/S 594 mmHg 96%
04:00 +14°C° 0.2 mm 0 m/S 594 mmHg 96%
05:00 +14°C° 0.2 mm 0 m/S 594 mmHg 96%
06:00 +16°C° 0 mm 1 m/S 594 mmHg 91%
07:00 +18°C° 0 mm 1 m/S 595 mmHg 86%
08:00 +19°C° 0 mm 1 m/S 596 mmHg 81%
09:00 +20°C° 0 mm 1 m/S 596 mmHg 73%
10:00 +21°C° 0 mm 2 m/S 596 mmHg 66%
11:00 +23°C° 0 mm 2 m/S 597 mmHg 58%
12:00 +22°C° 0.3 mm 3 m/S 596 mmHg 59%
13:00 +22°C° 0.3 mm 3 m/S 596 mmHg 59%
14:00 +22°C° 0.3 mm 4 m/S 595 mmHg 60%
15:00 +21°C° 0.3 mm 4 m/S 595 mmHg 66%
16:00 +20°C° 0.3 mm 4 m/S 594 mmHg 72%
17:00 +19°C° 0.3 mm 4 m/S 594 mmHg 79%
18:00 +18°C° 0.4 mm 3 m/S 594 mmHg 83%
19:00 +17°C° 0.4 mm 3 m/S 594 mmHg 87%
20:00 +16°C° 0.4 mm 2 m/S 595 mmHg 91%
21:00 +16°C° 0.3 mm 2 m/S 595 mmHg 92%
22:00 +16°C° 0.3 mm 1 m/S 595 mmHg 93%
23:00 +16°C° 0.3 mm 1 m/S 595 mmHg 94%

13 August, Donnerstag

Zeit Temperatur Niederschläge Wind Luftdruck Luftfeuchtigkeit
00:00 +15°C° 0.3 mm 0 m/S 595 mmHg 94%
01:00 +14°C° 0.3 mm 0 m/S 594 mmHg 94%
02:00 +14°C° 0.3 mm 0 m/S 594 mmHg 94%
03:00 +14°C° 0.1 mm 0 m/S 594 mmHg 95%
04:00 +15°C° 0.1 mm 1 m/S 594 mmHg 95%
05:00 +15°C° 0.1 mm 1 m/S 594 mmHg 96%
06:00 +16°C° 0 mm 1 m/S 595 mmHg 91%
07:00 +18°C° 0 mm 1 m/S 595 mmHg 87%
08:00 +18°C° 0 mm 1 m/S 596 mmHg 83%
09:00 +20°C° 0 mm 1 m/S 596 mmHg 73%
10:00 +20°C° 0 mm 2 m/S 596 mmHg 64%
11:00 +22°C° 0 mm 3 m/S 597 mmHg 54%
12:00 +23°C° 0 mm 4 m/S 596 mmHg 52%
13:00 +23°C° 0 mm 5 m/S 596 mmHg 49%
14:00 +24°C° 0 mm 6 m/S 596 mmHg 46%
15:00 +22°C° 0 mm 6 m/S 596 mmHg 53%
16:00 +21°C° 0 mm 6 m/S 595 mmHg 59%
17:00 +20°C° 0 mm 6 m/S 595 mmHg 66%
18:00 +18°C° 0 mm 4 m/S 594 mmHg 71%
19:00 +17°C° 0 mm 3 m/S 594 mmHg 76%
20:00 +16°C° 0 mm 2 m/S 594 mmHg 81%
21:00 +15°C° 0 mm 1 m/S 594 mmHg 84%
22:00 +15°C° 0 mm 1 m/S 594 mmHg 87%
23:00 +15°C° 0 mm 1 m/S 594 mmHg 90%
Mehr zeigen